Regional Weather Roundup
Issued by NWS Bismarck, ND

Home | Current Version | Previous Version | Text Only | Print | Product List | Glossary On
Versions: 1 2 3 4 5 6 7 8 9 10 11 12 13 14 15 16 17 18 19 20 21 22 23 24 25 26 27 28 29 30 31 32 33 34 35 36 37 38 39 40 41 42 43 44 45 46 47 48 49 50
000
ASUS43 KBIS 200910
RWRBIS

NWR BROADCAST TEXT
NATIONAL WEATHER SERVICE BISMARCK ND
300 AM CST TUE FEB 20 2018

NOTE: "FAIR" INDICATES FEW OR NO CLOUDS BELOW 12,000 FEET WITH NO
SIGNIFICANT WEATHER AND/OR OBSTRUCTIONS TO VISIBILITY.


CITY           SKY/WX    TMP DP  RH WIND       PRES   REMARKS
WILLISTON      LGT SNOW   2  -3  80 W10       30.12F WCI -14
MINOT          MOCLDY     2  -2  83 W6        30.11R WCI  -9
MINOT AFB      CLOUDY     4  -1  81 W6        30.11R WCI  -7
BISMARCK       FLURRIES   4  -1  80 NW7       30.14R WCI  -8
DICKINSON      LGT SNOW   1  -4  79 W6        30.04R WCI -10
GARRISON         N/A      1  -2  87 NW8       30.09R WCI -13
HETTINGER ARPT LGT SNOW   0  -5  79 NW9       30.01F WCI -15
JAMESTOWN      CLOUDY     3  -1  83 N14       30.05R WCI -15
CARRINGTON     FLURRIES   3   0  85 N10       30.06F WCI -12
HAZEN            N/A      1   0  92 W6        30.15R WCI -10
LINTON           N/A      3  -4  72 NW9       30.12R WCI -11
MANDAN         CLOUDY     1   0  92 NW8       30.11R WCI -12
OAKES            N/A      3  -2  78 N17       30.04R WCI -17
RUGBY          LGT SNOW   1  -2  85 NW7       30.07F WCI -11
STANLEY        PTSUNNY    1  -2  85 W8        30.09R FOG     WCI -12
TIOGA          LGT SNOW   1  -2  85 W12       30.08S WCI -15
WATFORD CITY   LGT SNOW   1  -2  85 W6        30.11F WCI -10
$$

CITY           SKY/WX    TMP DP  RH WIND       PRES   REMARKS
GRAND FORKS    LGT SNOW   5   1  83 N14       30.12F FOG     WCI -12
GRAND FORKS AF MOCLDY     3  -2  78 N13       30.11F BLWGSNOWWCI -14
DEVILS LAKE    FLURRIES   2  -2  83 N10       30.09F WCI -14
FARGO          LGT SNOW   6   2  83 N21       30.04F FOG     WCI -14
CANDO          LGT SNOW   3   0  85 NW7       30.11F WCI  -9
CAVALIER         N/A      3  -4  72 N9        30.16F WCI -11
GRAFTON        FAIR       3   0  85 N10       30.17F WCI -12
GWINNER          N/A      3   0  85 N20       30.02S FOG     WCI -18
LANGDON        FLURRIES   3   0  85 N7        30.08F WCI  -9
ROLLA          LGT SNOW   3  -2  78 CALM      30.06F
WALHALLA       FAIR       3  -4  72 N7        30.16F WCI  -9
$$

CITY           SKY/WX    TMP DP  RH WIND       PRES   REMARKS
ABERDEEN       LGT SNOW   4   0  83 N15       30.04R FOG     WCI -14
MOBRIDGE       CLOUDY     4  -2  76 N12       30.03R WCI -12
BUFFALO          N/A      0  -6  76 NW8       29.93F WCI -14
RAPID CITY     LGT SNOW  -2  -6  83 N14       29.98S FOG     WCI -21
GLASGOW        CLOUDY    -4  -9  79 SW6       30.10F WCI -16
SIDNEY         LGT SNOW   1  -3  83 NW3       30.12F FOG
WOLF POINT     CLOUDY    -3  -8  79 CALM      30.16R
GLENDIVE       FLURRIES   1  -3  83 NW7       30.09F WCI -12
MILES CITY     CLOUDY    -2  -5  87 W3        30.08F FOG
BAKER          PTCLDY    -7  -9  91 W3        30.03F
$$

CITY           SKY/WX    TMP DP  RH WIND       PRES   REMARKS
BILLINGS       CLOUDY    -9 -13  83 SW13      30.00S WCI -29
GREAT FALLS    MOCLDY   -16 -20  82 SW13      29.96S WCI -38
REGINA         MOCLDY   -11 -17  77 SW12      30.05F WCI -31
ESTEVAN        CLOUDY     0  -6  78 W6        30.10F WCI -12
$$




USA.gov is the U.S. government's official web portal to all federal, state and local government web resources and services.